This is the latest recevied weather packets stored in our database for station/object EB1TK-13. If no packets are shown the sender has not sent any weather packets the latest 10 day(s).
| Time | Temp. | Humidity | Pressure | Rain* | Wind** | Luminosity | Snow |
|---|---|---|---|---|---|---|---|
| 1777893735 | 15.56° C | 76% | 1014.6 hPa | 0 mm | - | - | - |
| 1777893135 | 15.56° C | 77% | 1014.5 hPa | 0 mm | - | - | - |
| 1777892535 | 15° C | 75% | 1014.5 hPa | 0.25 mm | - | - | - |
| 1777891936 | 15.56° C | 78% | 1014.8 hPa | 0.25 mm | - | - | - |
| 1777891336 | 15.56° C | 80% | 1014.7 hPa | 0.25 mm | - | - | - |
| 1777890737 | 15° C | 81% | 1014.7 hPa | 0.25 mm | - | - | - |
| 1777890137 | 15° C | 79% | 1014.8 hPa | 0.25 mm | - | - | - |
| 1777889535 | 15° C | 80% | 1014.7 hPa | 0.25 mm | - | - | - |
| 1777888935 | 14.44° C | 79% | 1014.7 hPa | 0 mm | - | - | - |
| 1777888336 | 14.44° C | 80% | 1014.6 hPa | 0 mm | - | - | - |
| 1777887736 | 14.44° C | 81% | 1014.6 hPa | 0 mm | - | - | - |
| 1777887138 | 14.44° C | 81% | 1014.6 hPa | 0 mm | - | - | - |
| 1777886537 | 15° C | 80% | 1014.7 hPa | 0 mm | - | - | - |
| 1777885937 | 14.44° C | 80% | 1014.5 hPa | 0 mm | - | - | - |
| 1777885335 | 14.44° C | 80% | 1014.6 hPa | 0 mm | - | - | - |
| 1777884735 | 14.44° C | 81% | 1014.6 hPa | 0 mm | - | - | - |
| 1777884136 | 13.89° C | 81% | 1014.5 hPa | 0 mm | - | - | - |
| 1777883536 | 14.44° C | 82% | 1014.4 hPa | 0 mm | - | - | - |
| 1777882936 | 13.89° C | 85% | 1014.5 hPa | 0 mm | - | - | - |
| 1777882336 | 13.33° C | 87% | 1014.4 hPa | 0 mm | - | - | - |
| 1777881736 | 12.78° C | 89% | 1014.4 hPa | 0 mm | - | - | - |
| 1777881136 | 12.78° C | 88% | 1014.3 hPa | 0 mm | - | - | - |
| 1777880535 | 12.78° C | 89% | 1014.2 hPa | 0 mm | - | - | - |
| 1777879935 | 12.78° C | 91% | 1014.3 hPa | 0 mm | - | - | - |
| 1777879335 | 12.22° C | 92% | 1014.2 hPa | 0 mm | - | - | - |
* Rain latest hour (hover to see other rain measurements)
** Current wind speed in m/s (hover to see current wind gust speed)